sat.trackr.live / text

‹ back to catalog

AETHER-12

NORAD 67383 · 2026-004W

PAYLOAD ACTIVE UNKNOWN

§ Identity

Operator
Country
CA
Launch date
2026-01-11
Launch site
AFWTR
Launch vehicle
Mass (kg)
RCS (m²)

External: N2YO · Heavens-Above · Gunter

§ Orbital elements

Epoch: 2026-09-20T13:25:19.338240Z

Period
96.91 min
Inclination
97.8078°
Eccentricity
0.0000338
Mean motion
14.85843603 rev/d
Perigee alt
610.7 km
Apogee alt
611.2 km
Semi-major
6,989.1 km
B*
6.7947e-5
RAAN
260.2742°
Arg perigee
151.2300°
Mean anomaly
208.8934°
Rev number
3,744

§ Raw data

AETHER-121 67383U 26004W   26263.55925160  .00000538  00000+0  67947-4 0  99932 67383  97.8078 260.2742 0000338 151.2300 208.8934 14.85843603 37441

JSON: /api/v1/satellites/67383 · /tle

For live sub-satellite position, see the globe view (requires WebGL).

§ Visibility from observer

Set your observer location to see the next 7 days of passes ≥ 10°. The values pass through the URL so the page stays shareable.

No JS? Fill the form by hand. The geolocation button needs JavaScript.